| time (UTC) | temp F | wind direction | speed MPH | gust MPH | rain 1hr in | rain 24hr in | rain mn in | humidity % | barometer mb |
| 20260506090025 | 50 | 161 | 0.0 | 0.0 | 0.00 | 0.01 | 0.00 | 87 | 1020.0 |
| 20260506084525 | 51 | 162 | 0.0 | 0.0 | 0.00 | 0.01 | 0.00 | 87 | 1020.0 |
| 20260506083023 | 51 | 149 | 0.0 | 0.0 | 0.00 | 0.01 | 0.00 | 86 | 1020.0 |
| 20260506081530 | 51 | 149 | 0.0 | 0.0 | 0.00 | 0.01 | 0.00 | 86 | 1019.9 |
| 20260506073018 | 51 | 151 | 0.0 | 0.0 | 0.00 | 0.01 | 0.00 | 85 | 1019.6 |
| 20260506071516 | 52 | 143 | 0.0 | 0.0 | 0.00 | 0.01 | 0.00 | 84 | 1019.5 |
| 20260506061514 | 53 | 143 | 0.0 | 0.0 | 0.00 | 0.01 | 0.01 | 80 | 1019.2 |
| 20260506044502 | 57 | 126 | 0.0 | 0.0 | 0.00 | 0.01 | 0.01 | 66 | 1018.4 |
| 20260506043002 | 59 | 27 | 0.0 | 0.0 | 0.00 | 0.01 | 0.01 | 62 | 1018.2 |
| 20260506041600 | 61 | 20 | 0.0 | 0.0 | 0.00 | 0.01 | 0.01 | 57 | 1017.9 |
| 20260506040058 | 63 | 11 | 0.0 | 0.0 | 0.00 | 0.01 | 0.01 | 53 | 1017.7 |
| 20260506034600 | 63 | 14 | 0.0 | 0.0 | 0.00 | 0.01 | 0.01 | 46 | 1017.4 |
| 20260506033057 | 64 | 352 | 0.0 | 0.0 | 0.00 | 0.01 | 0.01 | 41 | 1017.0 |
| 20260506031559 | 67 | 337 | 0.0 | 0.0 | 0.00 | 0.01 | 0.01 | 39 | 1016.9 |
| 20260506030057 | 68 | 339 | 0.0 | 0.0 | 0.00 | 0.01 | 0.01 | 37 | 1016.6 |
| 20260506024600 | 70 | 339 | 0.0 | 0.0 | 0.00 | 0.01 | 0.01 | 36 | 1016.3 |
| 20260506023059 | 72 | 279 | 0.0 | 0.0 | 0.00 | 0.01 | 0.01 | 34 | 1016.0 |
| 20260506021555 | 74 | 278 | 0.0 | 0.0 | 0.00 | 0.01 | 0.01 | 33 | 1015.7 |
| 20260506020054 | 76 | 4 | 0.0 | 0.0 | 0.00 | 0.01 | 0.01 | 31 | 1015.6 |
| 20260506014554 | 76 | 64 | 0.0 | 0.0 | 0.00 | 0.01 | 0.01 | 30 | 1015.5 |
| 20260506013053 | 77 | 85 | 0.0 | 0.0 | 0.00 | 0.01 | 0.01 | 29 | 1015.3 |
| 20260506011553 | 78 | 34 | 0.0 | 0.0 | 0.00 | 0.01 | 0.01 | 31 | 1015.2 |
| 20260506010051 | 78 | 322 | 0.0 | 0.0 | 0.00 | 0.01 | 0.01 | 29 | 1015.2 |
| 20260506004551 | 78 | 54 | 0.0 | 0.0 | 0.00 | 0.01 | 0.01 | 28 | 1015.2 |
| 20260506003050 | 79 | 296 | 0.0 | 0.0 | 0.00 | 0.01 | 0.01 | 29 | 1015.0 |
| 20260506001550 | 79 | 312 | 0.0 | 0.0 | 0.00 | 0.01 | 0.01 | 30 | 1015.1 |
| 20260506000046 | 79 | 295 | 0.0 | 0.0 | 0.00 | 0.01 | 0.01 | 29 | 1015.2 |
| 20260505234549 | 79 | 339 | 0.0 | 0.0 | 0.00 | 0.01 | 0.01 | 30 | 1015.2 |
| 20260505233042 | 79 | 245 | 0.0 | 0.0 | 0.00 | 0.01 | 0.01 | 30 | 1015.3 |
| 20260505231551 | 79 | 62 | 0.0 | 0.0 | 0.00 | 0.01 | 0.01 | 29 | 1015.4 |
| 20260505230050 | 79 | 40 | 0.0 | 0.0 | 0.00 | 0.01 | 0.01 | 28 | 1015.7 |
| 20260505224536 | 78 | 280 | 0.0 | 3.0 | 0.00 | 0.03 | 0.01 | 31 | 1015.7 |
| 20260505223034 | 78 | 303 | 0.0 | 0.0 | 0.00 | 0.03 | 0.01 | 30 | 1015.7 |
| 20260505221534 | 78 | 66 | 0.0 | 0.0 | 0.00 | 0.03 | 0.01 | 30 | 1015.9 |
| 20260505220033 | 78 | 320 | 0.0 | 0.0 | 0.00 | 0.03 | 0.01 | 31 | 1016.0 |
| 20260505214530 | 77 | 71 | 0.0 | 0.0 | 0.00 | 0.03 | 0.01 | 30 | 1016.2 |
| 20260505213028 | 77 | 314 | 0.0 | 0.0 | 0.00 | 0.03 | 0.01 | 33 | 1016.3 |
| 20260505211528 | 77 | 3 | 0.0 | 0.0 | 0.00 | 0.03 | 0.01 | 33 | 1016.4 |
| 20260505210024 | 76 | 70 | 0.0 | 0.0 | 0.00 | 0.03 | 0.01 | 35 | 1016.7 |
| 20260505204520 | 74 | 327 | 0.0 | 0.0 | 0.00 | 0.03 | 0.01 | 37 | 1016.7 |
| 20260505203020 | 73 | 3 | 0.0 | 0.0 | 0.00 | 0.03 | 0.01 | 39 | 1016.7 |
| 20260505201614 | 72 | 58 | 0.0 | 0.0 | 0.00 | 0.03 | 0.01 | 36 | 1016.9 |
| 20260505200012 | 72 | 353 | 0.0 | 0.0 | 0.00 | 0.03 | 0.01 | 39 | 1017.0 |
| 20260505194508 | 70 | 297 | 0.0 | 0.0 | 0.00 | 0.03 | 0.01 | 47 | 1017.1 |
| 20260505193004 | 68 | 20 | 0.0 | 0.0 | 0.00 | 0.03 | 0.01 | 46 | 1017.3 |
| 20260505191627 | 67 | 9 | 0.0 | 0.0 | 0.00 | 0.03 | 0.01 | 50 | 1017.3 |
| 20260505190058 | 66 | 270 | 0.0 | 0.0 | 0.00 | 0.03 | 0.01 | 51 | 1017.5 |
| 20260505184553 | 64 | 49 | 0.0 | 0.0 | 0.00 | 0.03 | 0.01 | 53 | 1017.6 |
| 20260505183049 | 63 | 50 | 0.0 | 0.0 | 0.00 | 0.03 | 0.01 | 57 | 1017.6 |
| 20260505181544 | 61 | 65 | 0.0 | 0.0 | 0.00 | 0.03 | 0.01 | 60 | 1017.6 |
| 20260505180058 | 61 | 32 | 0.0 | 0.0 | 0.00 | 0.03 | 0.01 | 69 | 1017.6 |
| 20260505174546 | 59 | 335 | 0.0 | 0.0 | 0.00 | 0.03 | 0.01 | 74 | 1017.5 |
| 20260505173034 | 58 | 315 | 0.0 | 0.0 | 0.00 | 0.03 | 0.01 | 74 | 1017.5 |
| 20260505171532 | 57 | 40 | 0.0 | 0.0 | 0.00 | 0.03 | 0.01 | 81 | 1017.5 |
| 20260505170025 | 56 | 48 | 0.0 | 0.0 | 0.00 | 0.03 | 0.01 | 84 | 1017.6 |
| 20260505164522 | 55 | 299 | 0.0 | 0.0 | 0.00 | 0.03 | 0.01 | 86 | 1017.6 |
| 20260505163017 | 53 | 341 | 0.0 | 0.0 | 0.00 | 0.03 | 0.01 | 89 | 1017.6 |
| 20260505161512 | 51 | 24 | 0.0 | 0.0 | 0.00 | 0.03 | 0.01 | 93 | 1017.7 |
| 20260505153005 | 48 | 184 | 0.0 | 0.0 | 0.01 | 0.03 | 0.01 | 94 | 1017.7 |
| 20260505151559 | 47 | 143 | 0.0 | 0.0 | 0.01 | 0.03 | 0.01 | 94 | 1017.6 |
| 20260505124541 | 42 | 143 | 0.0 | 0.0 | 0.00 | 0.02 | 0.00 | 92 | 1016.5 |
| 20260505123040 | 43 | 143 | 0.0 | 0.0 | 0.00 | 0.02 | 0.00 | 92 | 1016.3 |
| 20260505121539 | 43 | 143 | 0.0 | 0.0 | 0.00 | 0.02 | 0.00 | 92 | 1016.3 |
| 20260505120035 | 44 | 143 | 0.0 | 0.0 | 0.00 | 0.02 | 0.00 | 92 | 1016.2 |
| 20260505114533 | 44 | 143 | 0.0 | 0.0 | 0.00 | 0.02 | 0.00 | 92 | 1016.1 |
| 20260505113031 | 45 | 143 | 0.0 | 0.0 | 0.00 | 0.02 | 0.00 | 92 | 1016.1 |
| 20260505111530 | 45 | 143 | 0.0 | 0.0 | 0.00 | 0.02 | 0.00 | 92 | 1016.1 |
| 20260505101543 | 46 | 143 | 0.0 | 0.0 | 0.00 | 0.02 | 0.00 | 92 | 1015.9 |
| 20260505100049 | 46 | 143 | 0.0 | 0.0 | 0.00 | 0.02 | 0.00 | 92 | 1015.7 |
| 20260505094526 | 46 | 142 | 0.0 | 0.0 | 0.00 | 0.02 | 0.00 | 92 | 1015.8 |
| 20260505093023 | 46 | 142 | 0.0 | 0.0 | 0.00 | 0.02 | 0.00 | 92 | 1015.8 |
| 20260505091520 | 46 | 142 | 0.0 | 0.0 | 0.00 | 0.02 | 0.00 | 91 | 1015.6 |